PulseSat

PulseSat

GSAT0103 (GALILEO-FM3)

Last updated on Dec. 10, 2018, 12:08 a.m. UTC

1 38857U 12055A   18343.49965756  .00000066  00000-0  00000+0 0  9995
2 38857  54.9164 177.1011 0001173 234.9801 125.0573  1.70473884 38331
UTC
Height (km)
Latitude
Longitude
Inclination
Orbital Period

Next 30 passes for location: Hong Kong

Rise time Rise Azimuth (degrees) Set time Set Azimuth (degrees) Duration Max altitude (degrees)

No matching passes for this satellites

PulseSat

PulseSat is the new satellites software and hardware trackering solution by Pulsely.
Satellite Two Line Element Set source: US Air Force Space Command

Download PulseSat for iOS
© 2017 Pulsely Limited